DW2363 Weather Reports


time (UTC)temp
F
wind
direction
speed
knots
gust
knots
rain 1hr
in
rain 24hr
in
rain mn
in
humidity
%
barometer
mb
20260508054503 67 56 4.3 7.0 0.00 0.00 0.00 66 1015.7
20260508054459 67 36 4.3 7.0 0.00 0.00 0.00 65 1015.7
20260508053459 67 58 4.3 7.0 0.00 0.00 0.00 67 1015.7
20260508052959 67 53 3.5 5.2 0.00 0.00 0.00 67 1015.7
20260508052458 67 60 3.5 5.2 0.00 0.00 0.00 67 1015.7
20260508051958 67 59 1.7 5.2 0.00 0.00 0.00 67 1015.7
20260508051457 66 55 1.7 3.5 0.00 0.00 0.00 67 1015.7
20260508051002 66 0 1.7 3.5 0.00 0.00 0.00 65 1015.7
20260508050957 66 0 1.7 2.6 0.00 0.00 0.00 65 1015.7
20260508050000 66 0 0.9 3.5 0.00 0.00 0.00 67 1015.7
20260508045956 66 0 0.9 3.5 0.00 0.00 0.00 65 1015.7
20260508044957 67 0 0.9 3.5 0.00 0.00 0.00 66 1015.6
20260508044456 67 0 0.9 3.5 0.00 0.00 0.00 67 1015.6
20260508043957 67 22 0.0 2.6 0.00 0.00 0.00 66 1015.7
20260508043456 67 22 0.9 2.6 0.00 0.00 0.00 67 1015.6
20260508042957 68 26 0.9 1.7 0.00 0.00 0.00 66 1015.5
20260508042457 68 40 0.0 1.7 0.00 0.00 0.00 65 1015.4
20260508041957 68 40 0.0 0.9 0.00 0.00 0.00 64 1015.4
20260508041456 68 40 0.0 0.9 0.00 0.00 0.00 64 1015.3
20260508040955 68 40 0.0 0.9 0.00 0.00 0.00 64 1015.3
20260508040455 68 40 0.0 1.7 0.00 0.00 0.00 64 1015.2
20260508035955 68 40 0.9 1.7 0.00 0.00 0.00 64 1015.3
20260508035455 68 32 0.0 1.7 0.00 0.00 0.00 64 1015.1
20260508034955 69 221 0.0 0.0 0.00 0.00 0.00 64 1015.1
20260508034454 69 221 0.0 0.0 0.00 0.00 0.00 64 1015.1
20260508033955 69 221 0.0 0.9 0.00 0.00 0.00 65 1015.1
20260508033455 69 221 0.0 0.9 0.00 0.00 0.00 65 1015.1
20260508032959 69 221 0.0 0.9 0.00 0.00 0.00 64 1014.9
20260508032955 69 221 0.0 0.9 0.00 0.00 0.00 64 1014.9
20260508031956 69 221 0.0 3.5 0.00 0.00 0.00 65 1014.9
20260508031454 69 221 0.9 3.5 0.00 0.00 0.00 64 1014.8
20260508030954 69 221 1.7 3.5 0.00 0.00 0.00 64 1014.8
20260508030453 69 221 2.6 6.1 0.00 0.00 0.00 63 1014.6
20260508025953 69 230 3.5 6.1 0.00 0.00 0.00 63 1014.5
20260508025450 70 225 3.5 7.0 0.00 0.00 0.00 62 1014.5
20260508024950 70 221 3.5 7.0 0.00 0.00 0.00 61 1014.5
20260508024451 70 233 2.6 5.2 0.00 0.00 0.00 60 1014.5
20260508023951 70 253 1.7 5.2 0.00 0.00 0.00 60 1014.5
20260508023451 71 223 0.9 2.6 0.00 0.00 0.00 59 1014.4
20260508022951 71 273 0.0 1.7 0.00 0.00 0.00 59 1014.4
20260508022451 71 273 0.0 1.7 0.00 0.00 0.00 59 1014.3
20260508021951 71 273 0.9 1.7 0.00 0.00 0.00 60 1014.3
20260508021451 71 273 0.0 1.7 0.00 0.00 0.00 60 1014.3
20260508020951 71 273 0.0 3.5 0.00 0.00 0.00 59 1014.3
20260508020455 71 273 1.7 5.2 0.00 0.00 0.00 62 1014.2
20260508020451 71 273 0.0 3.5 0.00 0.00 0.00 60 1014.2
20260508015451 71 273 2.6 5.2 0.00 0.00 0.00 62 1014.2
20260508014951 71 267 2.6 5.2 0.00 0.00 0.00 62 1014.2
20260508014451 72 267 1.7 5.2 0.00 0.00 0.00 60 1014.3
20260508013955 73 286 2.6 4.3 0.00 0.00 0.00 58 1014.2
20260508013951 73 250 1.7 4.3 0.00 0.00 0.00 59 1014.3
20260508012951 73 275 2.6 6.1 0.00 0.00 0.00 58 1014.2
20260508012455 74 311 1.7 4.3 0.00 0.00 0.00 57 1014.2
20260508012451 74 288 2.6 6.1 0.00 0.00 0.00 57 1014.1
20260508011454 75 252 0.0 2.6 0.00 0.00 0.00 57 1014.2
20260508011448 75 312 0.9 3.5 0.00 0.00 0.00 57 1014.2
20260508011056 75 308 0.9 2.6 0.00 0.00 0.00 57 1014.3
20260508005949 75 262 0.9 4.3 0.00 0.00 0.00 56 1014.3
20260508005454 75 267 0.9 4.3 0.00 0.00 0.00 57 1014.2
20260508005448 75 317 0.9 4.3 0.00 0.00 0.00 55 1014.2
20260508004448 75 277 1.7 4.3 0.00 0.00 0.00 55 1014.3
20260508003952 75 268 1.7 3.5 0.00 0.00 0.00 56 1014.3
20260508003948 76 257 0.9 4.3 0.00 0.00 0.00 55 1014.3
20260508002949 76 304 0.9 4.3 0.00 0.00 0.00 56 1014.3
20260508002448 76 300 0.9 5.2 0.00 0.00 0.00 55 1014.2
20260508001948 76 306 0.9 5.2 0.00 0.00 0.00 56 1014.2
20260508001448 76 293 0.9 5.2 0.00 0.00 0.00 56 1014.2
20260508000948 76 229 0.9 5.2 0.00 0.00 0.00 56 1014.2
20260508000445 76 18 1.7 5.2 0.00 0.00 0.00 55 1014.3
20260507235946 76 47 0.9 7.8 0.00 0.00 0.00 55 1014.3
20260507235454 76 258 0.9 7.8 0.00 0.00 0.00 56 1014.3
20260507235447 76 315 0.9 7.8 0.00 0.00 0.00 55 1014.3
20260507234446 76 309 1.7 7.8 0.00 0.00 0.00 57 1014.3
20260507234054 75 244 3.5 10.4 0.00 0.00 0.00 59 1014.4
20260507233952 76 284 1.7 10.4 0.00 0.00 0.00 59 1014.4
20260507233946 76 252 0.9 4.3 0.00 0.00 0.00 57 1014.3
20260507233702 75 292 1.7 7.8 0.00 0.00 0.00 58 1014.4
20260507232446 75 248 2.6 8.7 0.00 0.00 0.00 57 1014.3
20260507231445 75 263 1.7 7.8 0.00 0.00 0.00 58 1014.4
20260507230944 76 252 2.6 7.8 0.00 0.00 0.00 56 1014.4
20260507230449 75 305 4.3 7.8 0.00 0.00 0.00 59 1014.4
20260507230445 75 255 3.5 7.8 0.00 0.00 0.00 57 1014.4
20260507225444 75 279 4.3 11.3 0.00 0.00 0.00 60 1014.4
20260507224944 74 305 4.3 11.3 0.00 0.00 0.00 61 1014.4
20260507224444 74 329 5.2 11.3 0.00 0.00 0.00 61 1014.4
20260507223948 74 309 6.1 10.4 0.00 0.00 0.00 64 1014.5
20260507223944 74 311 6.1 11.3 0.00 0.00 0.00 63 1014.6
20260507222944 73 270 5.2 10.4 0.00 0.00 0.00 63 1014.5
20260507222444 73 284 5.2 9.6 0.00 0.00 0.00 65 1014.6
20260507221942 73 284 4.3 9.6 0.00 0.00 0.00 65 1014.6
20260507221442 73 266 3.5 8.7 0.00 0.00 0.00 64 1014.6
20260507220942 74 259 3.5 10.4 0.00 0.00 0.00 63 1014.8
20260507220442 74 287 4.3 10.4 0.00 0.00 0.00 65 1014.8
20260507215946 73 306 3.5 8.7 0.00 0.00 0.00 66 1014.9
20260507215942 73 267 3.5 8.7 0.00 0.00 0.00 66 1014.9
20260507214942 73 307 3.5 8.7 0.00 0.00 0.00 64 1015.0
20260507214443 72 310 4.3 8.7 0.00 0.00 0.00 67 1015.0
20260507213942 72 291 3.5 8.7 0.00 0.00 0.00 67 1015.1
20260507213442 72 267 1.7 7.0 0.00 0.00 0.00 66 1015.2
20260507212946 73 267 5.2 10.4 0.00 0.00 0.00 66 1015.2
20260507212942 73 304 3.5 8.7 0.00 0.00 0.00 66 1015.2
20260507211942 73 322 5.2 10.4 0.00 0.00 0.00 66 1015.3
20260507211443 73 267 3.5 9.6 0.00 0.00 0.00 66 1015.3
20260507210943 73 296 4.3 7.8 0.00 0.00 0.00 66 1015.3
20260507210443 72 280 4.3 7.8 0.00 0.00 0.00 65 1015.3
20260507205941 71 285 4.3 7.8 0.00 0.00 0.00 68 1015.4
20260507205441 71 254 4.3 7.8 0.00 0.00 0.00 67 1015.4
20260507204942 72 275 2.6 7.8 0.00 0.00 0.00 64 1015.4
20260507204938 73 292 0.9 7.0 0.00 0.00 0.00 64 1015.5
20260507203938 73 238 2.6 8.7 0.00 0.00 0.00 66 1015.6
20260507203435 72 72 3.5 8.7 0.00 0.00 0.00 69 1015.5
20260507202939 72 264 1.7 6.1 0.00 0.00 0.00 64 1015.7
20260507202935 71 289 2.6 8.7 0.00 0.00 0.00 66 1015.6
20260507201933 72 254 1.7 7.0 0.00 0.00 0.00 65 1015.7
20260507201433 72 266 1.7 7.0 0.00 0.00 0.00 65 1015.8
20260507200934 71 246 0.9 5.2 0.00 0.00 0.00 67 1015.7
20260507200433 72 292 0.9 2.6 0.00 0.00 0.00 67 1015.9
20260507195933 72 257 0.0 2.6 0.00 0.00 0.00 66 1015.9
20260507195434 73 263 0.9 3.5 0.00 0.00 0.00 65 1015.9
20260507194934 72 250 0.9 3.5 0.00 0.00 0.00 68 1015.9
20260507194433 73 226 0.9 3.5 0.00 0.00 0.00 66 1015.9
20260507193933 73 161 0.9 5.2 0.00 0.00 0.00 66 1015.9
20260507193433 72 211 1.7 9.6 0.00 0.00 0.00 66 1016.0
20260507192933 73 190 2.6 9.6 0.00 0.00 0.00 63 1016.0
20260507192434 74 26 3.5 9.6 0.00 0.00 0.00 63 1016.2
20260507191937 74 88 4.3 9.6 0.00 0.00 0.00 61 1016.0
20260507191933 74 92 3.5 9.6 0.00 0.00 0.00 61 1016.2
20260507190933 73 98 5.2 9.6 0.00 0.00 0.00 64 1016.2
20260507190438 74 30 5.2 8.7 0.00 0.00 0.00 60 1016.3
20260507190434 74 90 5.2 9.6 0.00 0.00 0.00 60 1016.2
20260507185434 74 24 5.2 10.4 0.00 0.00 0.00 61 1016.3
20260507184933 73 13 5.2 10.4 0.00 0.00 0.00 63 1016.4
20260507184433 72 46 6.1 10.4 0.00 0.00 0.00 63 1016.4
20260507183933 71 45 6.1 10.4 0.00 0.00 0.00 64 1016.4
20260507183434 72 13 5.2 9.6 0.00 0.00 0.00 63 1016.4
20260507182932 72 38 5.2 8.7 0.00 0.00 0.00 64 1016.4
20260507182435 72 55 5.2 8.7 0.00 0.00 0.00 64 1016.5
20260507182431 72 42 5.2 8.7 0.00 0.00 0.00 63 1016.4
20260507181430 71 0 4.3 8.7 0.00 0.00 0.00 64 1016.5
20260507180928 71 0 3.5 8.7 0.00 0.00 0.00 65 1016.4
20260507180427 71 346 4.3 8.7 0.00 0.00 0.00 66 1016.4
20260507175927 70 38 4.3 7.8 0.00 0.00 0.00 65 1016.4
20260507175425 70 36 3.5 7.8 0.00 0.00 0.00 66 1016.4
20260507174926 70 355 2.6 7.0 0.00 0.00 0.00 66 1016.4
20260507174425 70 45 1.7 7.0 0.00 0.00 0.00 66 1016.4
20260507173930 70 16 1.7 7.8 0.00 0.00 0.00 66 1016.4
20260507173925 70 43 1.7 7.8 0.00 0.00 0.00 68 1016.4
20260507172926 70 57 0.9 7.0 0.00 0.00 0.00 68 1016.4
20260507172425 70 70 0.9 4.3 0.00 0.00 0.00 71 1016.5
20260507171925 69 132 0.9 3.5 0.00 0.00 0.00 71 1016.4
20260507171426 69 109 1.7 5.2 0.00 0.00 0.00 71 1016.5
20260507170925 69 52 1.7 5.2 0.00 0.00 0.00 68 1016.4
20260507170430 68 38 1.7 7.0 0.00 0.00 0.00 70 1016.4
20260507170425 68 14 1.7 6.1 0.00 0.00 0.00 69 1016.4
20260507165432 67 17 2.6 5.2 0.00 0.00 0.00 72 1016.5
20260507165425 68 21 2.6 7.0 0.00 0.00 0.00 70 1016.5
20260507164425 67 40 2.6 4.3 0.00 0.00 0.00 71 1016.5
20260507163926 68 37 2.6 5.2 0.00 0.00 0.00 70 1016.5
20260507163425 68 29 1.7 5.2 0.00 0.00 0.00 70 1016.5
20260507162929 68 355 1.7 4.3 0.00 0.00 0.00 69 1016.4
20260507162924 68 20 1.7 4.3 0.00 0.00 0.00 70 1016.4
20260507161923 68 11 0.9 3.5 0.00 0.00 0.00 69 1016.3
20260507161423 69 49 0.9 2.6 0.00 0.00 0.00 68 1016.4
20260507160928 68 326 0.9 4.3 0.00 0.00 0.00 67 1016.5
20260507160924 68 24 0.9 4.3 0.00 0.00 0.00 67 1016.4
20260507155923 68 338 1.7 4.3 0.00 0.00 0.00 67 1016.5
20260507155423 68 29 0.9 4.3 0.00 0.00 0.00 67 1016.4
20260507154923 68 73 0.9 3.5 0.00 0.00 0.00 65 1016.4
20260507154423 68 37 0.9 3.5 0.00 0.00 0.00 67 1016.5
20260507153923 68 54 0.9 3.5 0.00 0.00 0.00 67 1016.4
20260507153421 68 39 0.9 2.6 0.00 0.00 0.00 66 1016.4
20260507152920 67 41 0.0 2.6 0.00 0.00 0.00 66 1016.4
20260507152421 67 97 0.0 1.7 0.00 0.00 0.00 66 1016.4
20260507152029 67 61 0.0 2.6 0.00 0.00 0.00 67 1016.4
20260507151925 67 36 0.0 2.6 0.00 0.00 0.00 67 1016.4
20260507151921 67 97 0.9 2.6 0.00 0.00 0.00 66 1016.4
20260507150421 67 111 0.0 2.6 0.00 0.00 0.00 67 1016.4
20260507145920 67 36 0.0 0.9 0.00 0.00 0.00 67 1016.4
20260507145421 66 36 0.0 0.9 0.00 0.00 0.00 65 1016.5
20260507144919 66 36 0.0 1.7 0.00 0.00 0.00 68 1016.5
20260507144417 66 38 0.9 1.7 0.00 0.00 0.00 69 1016.5
20260507143922 66 26 0.0 1.7 0.00 0.00 0.00 66 1016.4
20260507143916 66 20 0.0 1.7 0.00 0.00 0.00 67 1016.4
20260507143531 66 27 0.9 2.6 0.00 0.00 0.00 68 1016.3
20260507143525 66 26 0.0 1.7 0.00 0.00 0.00 68 1016.3
20260507141917 66 5 0.9 2.6 0.00 0.00 0.00 65 1016.3
20260507141417 65 5 0.0 2.6 0.00 0.00 0.00 63 1016.2
20260507140915 65 355 0.9 4.3 0.00 0.00 0.00 65 1016.3
20260507140415 65 355 2.6 5.2 0.00 0.00 0.00 64 1016.2
20260507135915 65 0 3.5 5.2 0.00 0.00 0.00 63 1016.0
20260507135414 65 349 3.5 5.2 0.00 0.00 0.00 63 1016.2
20260507134915 65 349 3.5 5.2 0.00 0.00 0.00 64 1016.0
20260507134415 65 351 3.5 5.2 0.00 0.00 0.00 64 1016.0
20260507133915 65 0 3.5 5.2 0.00 0.00 0.00 64 1015.8
20260507133417 65 5 1.7 4.3 0.00 0.00 0.00 64 1015.9
20260507133413 65 0 3.5 4.3 0.00 0.00 0.00 64 1015.8
20260507132411 65 5 0.9 2.6 0.00 0.00 0.00 64 1015.8
20260507131913 64 35 0.0 1.7 0.00 0.00 0.00 65 1015.9
20260507131412 64 35 0.9 2.6 0.00 0.00 0.00 65 1015.8
20260507130911 64 24 2.6 3.5 0.00 0.00 0.00 65 1015.8
20260507130411 64 22 2.6 4.3 0.00 0.00 0.00 65 1015.8
20260507125910 64 26 2.6 4.3 0.00 0.00 0.00 65 1015.8
20260507125411 64 76 1.7 3.5 0.00 0.00 0.00 67 1015.8
20260507124911 64 76 0.9 2.6 0.00 0.00 0.00 67 1015.8
20260507124411 64 76 0.9 4.3 0.00 0.00 0.00 69 1015.8
20260507123911 64 76 0.9 4.3 0.00 0.00 0.00 70 1015.7
20260507123411 64 76 2.6 4.3 0.00 0.00 0.00 68 1015.7
20260507122911 64 76 2.6 5.2 0.00 0.00 0.00 68 1015.7
20260507122411 64 75 3.5 6.1 0.00 0.00 0.00 69 1015.6
20260507121910 64 90 3.5 6.1 0.00 0.00 0.00 69 1015.8
20260507121411 64 78 2.6 3.5 0.00 0.00 0.00 69 1015.7
20260507120911 63 93 1.7 3.5 0.00 0.00 0.00 69 1015.7
20260507120411 63 144 1.7 3.5 0.00 0.00 0.00 68 1015.8
20260507115914 63 76 2.6 3.5 0.00 0.00 0.00 70 1015.8
20260507115909 63 76 2.6 3.5 0.00 0.00 0.00 69 1015.8
20260507114908 63 76 2.6 3.5 0.00 0.00 0.00 71 1015.7
20260507114408 63 76 2.6 4.3 0.00 0.00 0.00 71 1015.7
20260507113908 63 76 2.6 4.3 0.00 0.00 0.00 71 1015.8
20260507113408 63 76 3.5 4.3 0.00 0.00 0.00 70 1015.8
20260507112909 63 76 2.6 4.3 0.00 0.00 0.00 70 1015.8
20260507112408 63 76 1.7 3.5 0.00 0.00 0.00 69 1015.8
20260507111909 63 76 0.9 2.6 0.00 0.00 0.00 64 1015.9
20260507111405 63 76 1.7 2.6 0.00 0.00 0.00 65 1015.9
20260507110904 63 76 1.7 2.6 0.00 0.00 0.00 67 1016.0
20260507110404 63 76 1.7 3.5 0.00 0.00 0.00 66 1016.0
20260507105904 63 76 2.6 4.3 0.00 0.00 0.00 65 1016.0
20260507105402 63 76 1.7 4.3 0.00 0.00 0.00 65 1016.0
20260507104902 63 76 0.9 3.5 0.00 0.00 0.00 69 1016.0
20260507104404 64 76 0.0 2.6 0.00 0.00 0.00 67 1016.0
20260507103902 64 76 0.0 2.6 0.00 0.00 0.00 69 1016.2
20260507103402 64 76 1.7 2.6 0.00 0.00 0.00 67 1016.2
20260507102902 64 76 2.6 6.1 0.00 0.00 0.00 63 1016.2
20260507102402 64 76 3.5 6.1 0.00 0.00 0.00 63 1016.2
20260507101902 63 76 4.3 6.1 0.00 0.00 0.00 65 1016.2
20260507101402 63 76 2.6 4.3 0.00 0.00 0.00 64 1016.2
20260507100902 62 76 0.9 4.3 0.00 0.00 0.00 66 1016.3
20260507100402 62 76 0.0 0.9 0.00 0.00 0.00 73 1016.3
20260507095902 62 76 0.0 1.7 0.00 0.00 0.00 70 1016.3
20260507095402 62 76 0.0 1.7 0.00 0.00 0.00 73 1016.4
20260507094900 62 76 0.0 1.7 0.00 0.00 0.00 72 1016.4
20260507094400 62 76 0.0 1.7 0.00 0.00 0.00 74 1016.4
20260507093901 62 76 0.9 2.6 0.00 0.00 0.00 75 1016.4
20260507093404 62 76 0.0 1.7 0.00 0.00 0.00 75 1016.5
20260507093400 62 76 0.0 2.6 0.00 0.00 0.00 74 1016.5
20260507092400 61 76 0.0 1.7 0.00 0.00 0.00 75 1016.5
20260507091905 61 76 1.7 2.6 0.00 0.00 0.00 75 1016.6
20260507091901 61 76 0.9 2.6 0.00 0.00 0.00 75 1016.5
20260507090900 61 76 0.9 2.6 0.00 0.00 0.00 75 1016.6
20260507090508 62 47 0.9 4.3 0.00 0.00 0.00 75 1016.7
20260507090358 61 76 1.7 4.3 0.00 0.00 0.00 75 1016.6
20260507085903 61 56 1.7 4.3 0.00 0.00 0.00 75 1016.7
20260507085858 61 72 1.7 4.3 0.00 0.00 0.00 76 1016.6
20260507084358 62 65 1.7 3.5 0.00 0.00 0.00 76 1016.8
20260507083858 62 59 1.7 5.2 0.00 0.00 0.00 76 1016.9
20260507083358 61 119 1.7 5.2 0.00 0.00 0.00 76 1016.9
20260507082858 61 55 0.9 3.5 0.00 0.00 0.00 76 1016.9
20260507082357 61 84 0.9 3.5 0.00 0.00 0.00 76 1017.0
20260507081902 60 20 3.5 5.2 0.00 0.00 0.00 76 1017.0
20260507081858 60 61 1.7 4.3 0.00 0.00 0.00 76 1017.0
20260507080858 60 32 4.3 5.2 0.00 0.00 0.00 76 1017.0
20260507080358 60 39 4.3 6.1 0.00 0.00 0.00 75 1017.1
20260507075858 60 39 5.2 6.1 0.00 0.00 0.00 75 1017.0
20260507075355 60 51 4.3 6.1 0.00 0.00 0.00 75 1017.0
20260507074855 60 46 4.3 6.1 0.00 0.00 0.00 75 1017.0
20260507074356 60 109 5.2 7.0 0.00 0.00 0.00 76 1017.0
20260507073856 60 5 5.2 7.0 0.00 0.00 0.00 76 1017.1
20260507073355 60 65 6.1 7.0 0.00 0.00 0.00 76 1017.1
20260507072855 60 66 5.2 7.0 0.00 0.00 0.00 75 1017.1
20260507072359 60 106 4.3 6.1 0.00 0.00 0.00 74 1017.2
20260507072355 60 77 4.3 7.0 0.00 0.00 0.00 74 1017.1
20260507071359 60 106 4.3 6.1 0.00 0.00 0.00 75 1017.1
20260507071355 60 106 4.3 6.1 0.00 0.00 0.00 75 1017.1
20260507070356 60 106 5.2 6.1 0.00 0.00 0.00 74 1017.1
20260507065855 60 106 5.2 6.1 0.00 0.00 0.00 75 1017.1
20260507065355 60 106 4.3 6.1 0.00 0.00 0.00 75 1017.1
20260507064855 60 106 3.5 6.1 0.00 0.00 0.00 75 1017.1
20260507064357 60 106 0.9 3.5 0.00 0.00 0.00 75 1017.2
20260507064353 60 106 1.7 5.2 0.00 0.00 0.00 75 1017.2
20260507063353 60 106 1.7 5.2 0.00 0.00 0.00 74 1017.2
20260507062852 60 106 2.6 5.2 0.00 0.00 0.00 73 1017.2
20260507062351 61 106 3.5 5.2 0.00 0.00 0.00 74 1017.1
20260507061849 61 106 3.5 5.2 0.00 0.00 0.00 74 1017.0
20260507061350 61 106 3.5 5.2 0.00 0.00 0.00 74 1017.0
20260507060849 61 126 3.5 5.2 0.00 0.00 0.00 74 1017.0
20260507060347 61 126 3.5 5.2 0.00 0.00 0.00 73 1017.1
20260507055850 61 126 3.5 5.2 0.00 0.00 0.00 73 1017.1
20260507055845 61 126 2.6 5.2 0.00 0.00 0.00 72 1017.1
20260507055452 61 126 2.6 5.2 0.00 0.00 0.00 71 1017.1